Weather reports worldwide

Advertisment
Dieppe, France (7040): temperature & dewpoint: 16.08.2019 20:00:00 - 22.08.2019 20:00:00 (CEST)Dieppe, France (7040): temperature 5cm: 16.08.2019 20:00:00 - 22.08.2019 20:00:00 (CEST)Dieppe, France (7040): wind speed & gusts: 16.08.2019 20:00:00 - 22.08.2019 20:00:00 (CEST)Dieppe, France (7040): wind direction: 16.08.2019 20:00:00 - 22.08.2019 20:00:00 (CEST)Dieppe, France (7040): reduced air pressure: 16.08.2019 20:00:00 - 22.08.2019 20:00:00 (CEST)Dieppe, France (7040): visibility: 16.08.2019 20:00:00 - 22.08.2019 20:00:00 (CEST)Dieppe, France (7040): precipitation: 16.08.2019 20:00:00 - 22.08.2019 20:00:00 (CEST)
Date & Time tt [°C] td [°C] tt 5cm [°C] ff [km/h] ff [kn] fx [km/h] fx [kn] dd ppp [hPa] vv [km] rr [mm]
22.08.2019 20:00:00 18,6 12,6 18,2 5 3 13 7 NNE 1026,2 - 0,0
22.08.2019 19:00:00 20,1 12,8 20,7 8 4 15 8 NNW 1026,1 - 0,0
22.08.2019 18:00:00 20,5 14,8 21,5 10 6 17 9 N 1026,2 - 0,0
22.08.2019 17:00:00 21,4 15,5 23,0 9 5 19 11 NNW 1026,4 14 0,0
22.08.2019 16:00:00 21,3 14,9 25,3 13 7 18 10 N 1026,5 - 0,0
22.08.2019 15:00:00 21,6 15,0 24,6 11 6 16 9 NNW 1026,8 - 0,0
22.08.2019 14:00:00 21,2 13,6 23,4 11 6 16 9 NW 1027,0 - 0,0
22.08.2019 13:00:00 20,5 12,5 22,9 7 4 12 6 NW 1027,0 - 0,0
22.08.2019 12:00:00 20,5 10,9 24,6 8 4 11 6 NW 1027,2 - 0,0
22.08.2019 11:00:00 18,0 11,1 18,8 3 2 9 5 W 1027,0 15 0,0
22.08.2019 10:00:00 13,9 11,8 13,7 8 4 15 8 SSE 1026,8 - 0,0
22.08.2019 09:00:00 11,2 10,9 10,4 11 6 21 11 SSE 1026,5 - 0,0
22.08.2019 08:00:00 10,1 9,8 9,8 13 7 20 11 SSE 1026,2 - 0,0
22.08.2019 07:00:00 10,2 9,9 9,8 13 7 19 11 SSE 1025,8 - 0,0
22.08.2019 06:00:00 10,6 10,1 10,2 13 7 18 10 S 1025,7 - 0,0
22.08.2019 05:00:00 11,3 10,7 10,8 10 5 14 8 SSE 1025,8 - 0,0
22.08.2019 04:00:00 12,0 11,1 11,6 9 5 13 7 S 1025,9 - 0,2
22.08.2019 03:00:00 12,4 11,5 11,9 8 5 11 6 S 1026,2 - 0,0
22.08.2019 02:00:00 13,1 11,8 12,4 7 4 11 6 S 1026,5 10 0,0
22.08.2019 01:00:00 13,8 11,8 13,0 6 3 9 5 S 1026,5 - 0,0
22.08.2019 00:00:00 15,0 12,3 13,1 0 0 6 3 N 1026,6 - 0,0
21.08.2019 23:00:00 16,3 12,6 12,5 4 2 8 4 N 1026,6 10 0,0
21.08.2019 22:00:00 16,6 12,5 14,8 7 4 15 8 NE 1026,5 - 0,0
21.08.2019 21:00:00 17,7 12,8 16,6 6 3 15 8 NNE 1026,4 - 0,0
21.08.2019 20:00:00 18,2 12,9 17,9 8 4 20 11 NNE 1026,3 - 0,0
21.08.2019 19:00:00 18,7 12,9 19,6 14 7 20 11 N 1026,5 - 0,0
21.08.2019 18:00:00 19,0 13,0 20,1 15 8 25 14 N 1026,9 - 0,0
21.08.2019 17:00:00 19,1 13,3 21,1 13 7 27 14 N 1026,8 20 0,0
21.08.2019 16:00:00 19,4 12,6 23,0 16 8 29 16 N 1027,1 - 0,0
21.08.2019 15:00:00 19,2 11,7 22,3 16 9 23 12 N 1027,5 - 0,0
21.08.2019 14:00:00 19,4 12,6 23,1 13 7 21 11 N 1027,8 - 0,0
21.08.2019 13:00:00 19,6 11,9 22,6 9 5 16 8 N 1028,1 - 0,0
21.08.2019 12:00:00 19,5 10,5 21,5 0 0 14 7 N 1028,7 - 0,0
21.08.2019 11:00:00 17,0 13,5 17,1 5 3 11 6 SSW 1028,9 12 0,0
21.08.2019 10:00:00 14,2 11,5 13,8 8 5 17 9 S 1029,1 - 0,0
21.08.2019 09:00:00 11,4 9,8 10,5 13 7 19 10 SSE 1028,9 - 0,0
21.08.2019 08:00:00 9,1 8,2 8,7 14 8 19 10 S 1028,6 12 0,0
21.08.2019 07:00:00 8,9 8,0 8,7 14 7 20 11 SSE 1028,4 - 0,0
21.08.2019 06:00:00 9,3 8,5 8,8 15 8 21 11 S 1028,0 - 0,0
21.08.2019 05:00:00 9,5 8,4 9,1 13 7 19 10 S 1028,0 - 0,0
21.08.2019 04:00:00 10,1 8,9 9,7 13 7 17 9 S 1028,1 - 0,0
21.08.2019 03:00:00 10,8 9,2 10,4 11 6 19 11 S 1028,1 - 0,0
21.08.2019 02:00:00 11,5 9,6 10,8 9 5 14 8 S 1028,3 - 0,0
21.08.2019 01:00:00 13,0 10,2 12,5 9 5 16 9 SSE 1028,2 - 0,0
21.08.2019 00:00:00 13,8 10,4 13,1 9 5 15 8 S 1028,1 - 0,0
20.08.2019 23:00:00 15,0 10,6 13,7 6 4 16 9 S 1027,9 - 0,0
20.08.2019 22:00:00 15,6 10,8 14,1 7 4 18 10 SW 1027,6 - 0,0
20.08.2019 21:00:00 16,5 10,3 15,5 9 5 21 11 WSW 1027,2 - 0,0
20.08.2019 20:00:00 17,6 10,5 17,3 14 7 26 14 W 1026,7 18 0,0
20.08.2019 19:00:00 18,6 10,2 19,4 13 7 25 14 W 1026,4 - 0,0
20.08.2019 18:00:00 18,9 12,9 19,2 15 8 31 17 WNW 1026,3 - 0,0
20.08.2019 17:00:00 18,8 11,8 19,9 23 12 33 18 W 1025,9 18 0,0
20.08.2019 16:00:00 18,6 12,6 20,4 23 12 34 19 WNW 1025,6 - 0,0
20.08.2019 15:00:00 18,6 11,9 21,4 23 12 35 19 WNW 1025,3 - 0,0
20.08.2019 14:00:00 18,7 12,0 19,2 20 11 33 18 W 1025,0 12 0,0
20.08.2019 13:00:00 18,2 11,3 19,2 20 11 37 20 W 1024,7 - 0,0
20.08.2019 12:00:00 18,5 12,7 18,3 17 9 29 16 W 1024,2 - 0,0
20.08.2019 11:00:00 17,4 11,7 18,2 15 8 29 16 W 1024,1 - 0,0
20.08.2019 10:00:00 16,6 12,1 17,9 9 5 19 11 SW 1023,7 - 0,0
20.08.2019 09:00:00 13,9 11,4 12,9 10 6 21 11 S 1023,4 - 0,0
20.08.2019 08:00:00 12,7 10,8 12,0 14 8 21 12 S 1022,8 - 0,0
20.08.2019 07:00:00 12,2 10,6 11,8 12 7 20 11 SSE 1022,3 - 0,0
20.08.2019 06:00:00 12,2 10,6 11,8 13 7 19 11 SSE 1021,6 - 0,0
20.08.2019 05:00:00 12,7 10,8 12,1 9 5 16 9 S 1021,5 10 0,0
20.08.2019 04:00:00 12,8 10,9 12,3 10 6 16 9 S 1021,4 - 0,0
20.08.2019 03:00:00 13,0 10,9 12,5 10 5 17 9 S 1021,6 - 0,0
20.08.2019 02:00:00 13,5 11,5 12,9 9 5 16 8 S 1021,5 14 0,0
20.08.2019 01:00:00 15,0 12,1 14,0 9 5 19 11 SSW 1021,4 - 0,0
20.08.2019 00:00:00 15,3 12,2 14,4 10 6 18 10 SSW 1021,1 - 0,0
19.08.2019 23:00:00 15,8 12,4 14,7 8 4 21 11 SSW 1020,9 14 0,0
19.08.2019 22:00:00 16,5 12,6 15,6 12 6 23 12 SW 1020,5 - 0,0
19.08.2019 21:00:00 17,2 12,7 16,4 16 9 34 19 WSW 1019,9 - 0,0
19.08.2019 20:00:00 18,2 13,3 18,1 19 10 39 21 W 1019,5 - 0,0
19.08.2019 19:00:00 18,7 13,3 19,5 23 12 41 22 W 1019,3 - 0,0
19.08.2019 18:00:00 19,2 13,1 20,0 24 13 42 23 W 1019,1 - 0,0
19.08.2019 17:00:00 19,1 13,1 20,4 23 12 43 23 W 1019,0 10 0,0
19.08.2019 16:00:00 19,2 13,6 18,5 23 12 44 24 W 1018,8 - 0,0
19.08.2019 15:00:00 17,2 13,5 14,5 23 13 61 33 W 1018,8 - 1,4
19.08.2019 14:00:00 17,9 12,3 17,9 27 15 51 28 W 1018,0 7 0,0
19.08.2019 13:00:00 18,6 12,8 15,4 29 16 49 26 W 1017,4 - 0,2
19.08.2019 12:00:00 18,3 11,8 15,4 22 12 39 21 WSW 1017,2 - 0,0
19.08.2019 11:00:00 16,7 12,8 15,1 23 12 35 19 SW 1016,9 7 0,0
19.08.2019 10:00:00 16,2 12,7 15,5 16 9 34 18 SSW 1016,3 - 0,0
19.08.2019 09:00:00 15,1 12,4 14,0 17 9 32 17 SSW 1015,9 - 0,0
19.08.2019 08:00:00 14,1 12,0 13,3 17 9 31 17 S 1015,6 7 0,0
19.08.2019 07:00:00 13,7 11,7 12,8 18 10 29 16 S 1015,1 - 0,0
19.08.2019 06:00:00 13,4 11,6 12,9 16 8 28 15 S 1014,7 - 0,0
19.08.2019 05:00:00 14,0 12,0 12,5 16 8 26 14 S 1014,5 10 0,0
19.08.2019 04:00:00 13,7 11,7 12,5 13 7 25 13 S 1014,4 - 0,4
19.08.2019 03:00:00 14,5 11,8 14,0 14 8 23 13 S 1014,2 - 0,0
19.08.2019 02:00:00 14,9 11,5 14,1 12 7 24 13 SSW 1013,8 20 0,0
19.08.2019 01:00:00 15,3 11,3 14,5 13 7 29 16 SW 1013,5 - 0,0
19.08.2019 00:00:00 15,4 11,0 14,6 16 9 31 17 SW 1012,9 - 0,0
18.08.2019 23:00:00 15,8 10,5 14,9 14 8 30 16 SSW 1012,5 10 0,0
18.08.2019 22:00:00 16,2 10,9 15,2 13 7 27 15 SSW 1012,1 - 0,0
18.08.2019 21:00:00 17,1 11,8 16,3 16 9 35 19 SW 1011,5 - 0,0
18.08.2019 20:00:00 18,1 12,5 18,1 19 10 39 21 W 1011,1 - 0,0
18.08.2019 19:00:00 18,6 13,0 18,9 24 13 45 24 W 1010,9 - 0,0
18.08.2019 18:00:00 19,2 13,6 19,5 27 15 47 26 W 1010,6 - 0,0
18.08.2019 17:00:00 19,6 13,5 19,2 25 14 45 24 W 1010,1 15 0,0
18.08.2019 16:00:00 19,4 13,1 21,4 25 13 48 26 W 1009,9 - 0,0
18.08.2019 15:00:00 18,8 13,2 20,0 28 15 51 28 W 1009,2 - 0,0
18.08.2019 14:00:00 18,3 14,4 17,4 27 15 59 32 W 1008,5 15 0,0
18.08.2019 13:00:00 17,5 15,3 16,7 14 8 32 17 SW 1007,8 - 0,0
18.08.2019 12:00:00 16,8 14,8 16,8 12 7 21 11 WSW 1007,2 - 0,0
18.08.2019 11:00:00 16,2 14,4 14,6 6 4 31 17 WSW 1006,3 10 0,0
18.08.2019 10:00:00 15,2 13,9 14,4 16 9 29 16 NNW 1005,3 - 0,0
18.08.2019 09:00:00 14,4 13,3 13,7 6 3 13 7 SSW 1004,5 - 0,0
18.08.2019 08:00:00 13,9 13,1 13,5 8 5 16 9 S 1003,9 10 0,6
18.08.2019 07:00:00 14,5 13,9 14,0 6 3 17 9 SSW 1004,1 - 1,2
18.08.2019 06:00:00 14,6 13,8 14,1 9 5 17 9 SSE 1004,3 - 2,3
18.08.2019 05:00:00 14,9 13,9 14,2 9 5 30 16 S 1005,6 15 2,6
18.08.2019 04:00:00 15,4 13,9 14,6 13 7 26 14 S 1006,6 - 1,4
18.08.2019 03:00:00 16,3 14,5 15,5 7 4 16 9 SSE 1006,6 - 0,0
18.08.2019 02:00:00 16,4 14,6 15,6 7 4 18 10 S 1007,3 15 0,0
18.08.2019 01:00:00 16,5 14,5 15,7 11 6 19 11 S 1007,6 - 0,0
18.08.2019 00:00:00 16,7 14,2 15,7 11 6 22 12 S 1008,2 - 0,0
17.08.2019 23:00:00 17,2 13,9 15,9 10 5 18 10 S 1008,5 10 0,0
17.08.2019 22:00:00 17,4 13,5 17,0 10 5 20 11 S 1008,6 - 0,0
17.08.2019 21:00:00 17,8 13,5 17,2 11 6 20 11 SW 1008,5 - 0,0
17.08.2019 20:00:00 18,2 14,3 18,2 8 5 15 8 WSW 1008,6 10 0,0
17.08.2019 19:00:00 18,3 14,4 18,5 10 5 22 12 WSW 1008,4 - 0,0
17.08.2019 18:00:00 18,5 14,6 18,9 13 7 27 15 WSW 1008,9 - 0,0
17.08.2019 17:00:00 18,5 14,2 19,1 17 9 34 18 W 1009,0 12 0,0
17.08.2019 16:00:00 18,4 14,5 17,0 18 10 41 22 W 1008,5 - 0,0
17.08.2019 15:00:00 18,0 14,9 17,0 23 12 38 21 W 1008,7 - 0,0
17.08.2019 14:00:00 17,5 15,3 16,9 17 9 34 18 WSW 1008,5 9 0,2
17.08.2019 13:00:00 17,1 16,3 16,6 15 8 37 20 W 1008,2 - 0,0
17.08.2019 12:00:00 17,4 16,3 16,9 26 14 42 23 W 1008,3 - 1,6
17.08.2019 11:00:00 18,9 17,7 18,1 13 7 29 16 SSW 1007,5 8 0,0
17.08.2019 10:00:00 18,3 17,1 17,8 15 8 31 17 S 1007,8 - 0,0
17.08.2019 09:00:00 18,1 17,1 17,4 16 8 32 18 S 1007,6 - 0,0
17.08.2019 08:00:00 17,8 16,7 16,8 16 9 35 19 S 1007,4 8 0,0
17.08.2019 07:00:00 17,7 16,6 16,8 21 11 36 19 SSW 1007,3 - 0,0
17.08.2019 06:00:00 17,3 15,8 16,5 16 9 32 18 S 1007,3 - 0,0
17.08.2019 05:00:00 17,1 15,4 16,1 18 10 37 20 S 1007,7 14 0,2
17.08.2019 04:00:00 17,3 14,9 15,8 22 12 41 22 S 1007,7 - 0,0
17.08.2019 03:00:00 17,5 14,2 16,6 23 12 48 26 S 1008,1 - 0,0
17.08.2019 02:00:00 17,8 13,9 17,5 22 12 51 28 SSW 1008,2 - 0,0
17.08.2019 01:00:00 18,0 13,7 17,7 22 12 45 24 S 1008,7 - 0,0
17.08.2019 00:00:00 18,1 14,0 16,0 24 13 44 24 S 1009,1 - 0,0
16.08.2019 23:00:00 17,4 14,3 15,8 16 9 30 16 S 1009,8 - 0,2
16.08.2019 22:00:00 18,0 14,3 15,8 11 6 20 11 S 1010,7 - 0,4
16.08.2019 21:00:00 19,1 13,5 16,0 14 8 31 17 SSW 1011,0 - 0,2
16.08.2019 20:00:00 20,5 12,5 20,1 10 6 30 16 SSW 1011,3 - 0,0

tt = temperature
td = dewpoint
tt 5cm = temperature 5cm
ff = wind speed
fx = gusts
dd = wind direction
ppp = reduced air pressure
vv = visibility
rr = precipitation

Next stations